THEOS

Satellite information

Favourite Embed

Satellite Type and Status

PAYLOADIN ORBIT

Key statistics

Satellite THEOS at a glance.

Uptime

6226

Days in orbit

Revolutions

≈ 14.2

Per day

Orbit

SSO

Sun Synchronous Orbit

Inclination

98.6

Latest

Satellite identification and parameters

Extended collection of information and parameters for THEOS.

Object identification

Identified? True

Debris? False

Object name: THEOS

International designator: 2008-049A

Object number (NORAD): 33396

Object ID (CCSDS): 33396

Country: THAILAND (THAI)

Current information (Y/N): Y

RCS size: LARGE

Orbital parameters

Period: 101.403 minutes

Inclination: 98.5949 deg

SMA: 7203.226 km

Apoapsis: 825.85 km

Periapsis: 824.331 km

RAAN: 350.7301 deg

Eccentricy: 0.00010542

Argument of periapsis: 89.2861 deg

Mean anomaly: 270.8437 deg

Mean motion: 14.20078099 rev/day

Mean motion (dot): 0.00000092 rev/day2

B* drag term: 0.000063319711 1/REarth

Two-line elements (TLE)

Creation date: Oct. 18, 2025, 2:17 a.m.

Reference frame: TEME

Reference center: EARTH

Epoch: Oct. 18, 2025, 12:28 a.m. UTC

TLE line 0: 0 THEOS

TLE line 1: 1 33396U 08049A 25291.01976774 .00000092 00000-0 63320-4 0 9994

TLE line 2: 2 33396 98.5949 350.7301 0001054 89.2861 270.8437 14.20078099883597

Live tracking on map

Real-time ground track for satellite THEOS.

In-orbit conjunctions

There are no conjunctions computed for THEOS, at the moment. Check back to stay up to date, as we update our databases every day.

Go to all conjunctions

Associated space launch

Thai Earth observation satellite

THEOS was lifted into orbit during the mission ‘Dnepr | Thaichote’, on board a Dnepr space rocket.

The launch took place on Oct. 1, 2008, 6:37 a.m. from 370/13.

For more information about the launch, click the button.

Launch to space Dnepr | Thaichote
Dnepr | Thaichote

Agency: N/A

Status: Launch Successful

Launch date: Oct. 1, 2008, 6:37 a.m. UTC

Rocket: Dnepr

Launch pad: 370/13

Location: Dombarovskiy, Russian Federation

...

Latest news about this satellite

There are no fresh news available about this satellite. Check back as we update our databases every day.


Newsletter sign-up

Weekly statistics, charts and insights to help you stay on top of the space industry.